"Sample Date","Sample Time","Sample Value","Units","Flow Rate","Sample Interval","Number Channels","Micron Size 0","Counts/Channel 0","Micron Size 1","Counts/Channel 1","Micron Size 2","Counts/Channel 2","Micron Size 3","Counts/Channel 3","Micron Size 4","Counts/Channel 4","Micron Size 5","Counts/Channel 5","Micron Size 6","Counts/Channel 6","Micron Size 7","Counts/Channel 7","Micron Size 8","Counts/Channel 8","Micron Size 9","Counts/Channel 9","Micron Size 10","Counts/Channel 10","Micron Size 11","Counts/Channel 11","Micron Size 12","Counts/Channel 12","Micron Size 13","Counts/Channel 13","Micron Size 14","Counts/Channel 14","Micron Size 15","Counts/Channel 15","Micron Size 16","Counts/Channel 16","Micron Size 17","Counts/Channel 17","Micron Size 18","Counts/Channel 18","Micron Size 19","Counts/Channel 19","Micron Size 20","Counts/Channel 20","Micron Size 21","Counts/Channel 21","Micron Size 22","Counts/Channel 22","Micron Size 23","Counts/Channel 23","Micron Size 24","Counts/Channel 24","Micron Size 25","Counts/Channel 25","Micron Size 26","Counts/Channel 26","Micron Size 27","Counts/Channel 27","Micron Size 28","Counts/Channel 28","Micron Size 29","Counts/Channel 29","Micron Size 30","Counts/Channel 30","Micron Size 31","Counts/Channel 31"
"03/09/08","10:00:03",5610.000,"cc",28289.955,6.00,6,0.100,5022.000,0.200,509.000,0.300,78.000,0.500,1.000,1.000,0,5.000,0
"03/09/08","10:00:09",5697.000,"cc",28408.543,6.00,6,0.100,5159.000,0.200,467.000,0.300,68.000,0.500,3.000,1.000,0,5.000,0
"03/09/08","10:00:15",5693.000,"cc",28300.525,6.00,6,0.100,5159.000,0.200,459.000,0.300,64.000,0.500,11.000,1.000,0,5.000,0
"03/09/08","10:00:21",5665.000,"cc",28364.635,6.00,6,0.100,5134.000,0.200,471.000,0.300,59.000,0.500,1.000,1.000,0,5.000,0
"03/09/08","10:00:27",5591.000,"cc",28246.732,6.00,6,0.100,5050.000,0.200,477.000,0.300,62.000,0.500,2.000,1.000,0,5.000,0
"03/09/08","10:00:33",5753.000,"cc",28177.518,6.00,6,0.100,5237.000,0.200,466.000,0.300,47.000,0.500,3.000,1.000,0,5.000,0
"03/09/08","10:00:39",5570.000,"cc",28441.297,6.00,6,0.100,5046.000,0.200,465.000,0.300,49.000,0.500,10.000,1.000,0,5.000,0
"03/09/08","10:00:45",5719.000,"cc",28314.047,6.00,6,0.100,5150.000,0.200,491.000,0.300,76.000,0.500,2.000,1.000,0,5.000,0
"03/09/08","10:00:51",5666.000,"cc",28458.297,6.00,6,0.100,5147.000,0.200,466.000,0.300,49.000,0.500,4.000,1.000,0,5.000,0
"03/09/08","10:00:57",6068.000,"cc",28268.135,6.00,6,0.100,5417.000,0.200,560.000,0.300,82.000,0.500,9.000,1.000,0,5.000,0
"03/09/08","10:01:03",5379.000,"cc",28330.463,6.00,6,0.100,4899.000,0.200,436.000,0.300,38.000,0.500,6.000,1.000,0,5.000,0
"03/09/08","10:01:09",5281.000,"cc",28283.865,6.00,6,0.100,4816.000,0.200,423.000,0.300,37.000,0.500,4.000,1.000,1.000,5.000,0
"03/09/08","10:01:15",5584.000,"cc",28236.668,6.00,6,0.100,5082.000,0.200,440.000,0.300,57.000,0.500,5.000,1.000,0,5.000,0
"03/09/08","10:01:21",5591.000,"cc",28322.568,6.00,6,0.100,5059.000,0.200,474.000,0.300,52.000,0.500,6.000,1.000,0,5.000,0
"03/09/08","10:01:27",5936.000,"cc",28297.545,6.00,6,0.100,5378.000,0.200,484.000,0.300,68.000,0.500,5.000,1.000,1.000,5.000,0
"03/09/08","10:01:33",6057.000,"cc",28282.260,6.00,6,0.100,5498.000,0.200,496.000,0.300,59.000,0.500,4.000,1.000,0,5.000,0
"03/09/08","10:01:39",6117.000,"cc",28357.637,6.00,6,0.100,5525.000,0.200,527.000,0.300,62.000,0.500,3.000,1.000,0,5.000,0
"03/09/08","10:01:45",5730.000,"cc",28469.522,6.00,6,0.100,5233.000,0.200,459.000,0.300,32.000,0.500,6.000,1.000,0,5.000,0
"03/09/08","10:01:51",6049.000,"cc",28277.574,6.00,6,0.100,5454.000,0.200,529.000,0.300,61.000,0.500,5.000,1.000,0,5.000,0
"03/09/08","10:01:57",5997.000,"cc",28380.816,6.00,6,0.100,5438.000,0.200,510.000,0.300,47.000,0.500,2.000,1.000,0,5.000,0
"03/09/08","10:02:03",5811.000,"cc",28217.789,6.00,6,0.100,5224.000,0.200,517.000,0.300,64.000,0.500,6.000,1.000,0,5.000,0
"03/09/08","10:02:09",6116.000,"cc",28248.602,6.00,6,0.100,5530.000,0.200,517.000,0.300,63.000,0.500,5.000,1.000,1.000,5.000,0
"03/09/08","10:02:15",6016.000,"cc",28315.123,6.00,6,0.100,5463.000,0.200,492.000,0.300,57.000,0.500,4.000,1.000,0,5.000,0
"03/09/08","10:02:21",5931.000,"cc",28295.248,6.00,6,0.100,5373.000,0.200,507.000,0.300,49.000,0.500,2.000,1.000,0,5.000,0
"03/09/08","10:02:27",6014.000,"cc",28362.908,6.00,6,0.100,5464.000,0.200,494.000,0.300,54.000,0.500,2.000,1.000,0,5.000,0
"03/09/08","10:02:33",6066.000,"cc",28221.738,6.00,6,0.100,5483.000,0.200,512.000,0.300,63.000,0.500,8.000,1.000,0,5.000,0
"03/09/08","10:02:39",6075.000,"cc",28307.406,6.00,6,0.100,5516.000,0.200,490.000,0.300,63.000,0.500,6.000,1.000,0,5.000,0
"03/09/08","10:02:45",5915.000,"cc",28387.010,6.00,6,0.100,5379.000,0.200,483.000,0.300,47.000,0.500,6.000,1.000,0,5.000,0
"03/09/08","10:02:51",5966.000,"cc",28327.617,6.00,6,0.100,5454.000,0.200,458.000,0.300,49.000,0.500,4.000,1.000,1.000,5.000,0
"03/09/08","10:02:57",5716.000,"cc",28330.170,6.00,6,0.100,5245.000,0.200,436.000,0.300,29.000,0.500,6.000,1.000,0,5.000,0
"03/09/08","10:03:03",6099.000,"cc",28346.957,6.00,6,0.100,5553.000,0.200,490.000,0.300,49.000,0.500,7.000,1.000,0,5.000,0
"03/09/08","10:03:09",5930.000,"cc",28307.676,6.00,6,0.100,5464.000,0.200,419.000,0.300,45.000,0.500,2.000,1.000,0,5.000,0
"03/09/08","10:03:15",6240.000,"cc",28330.221,6.00,6,0.100,5704.000,0.200,473.000,0.300,59.000,0.500,4.000,1.000,0,5.000,0
"03/09/08","10:03:21",5941.000,"cc",28271.815,6.00,6,0.100,5464.000,0.200,438.000,0.300,37.000,0.500,2.000,1.000,0,5.000,0
"03/09/08","10:03:27",5928.000,"cc",28332.330,6.00,6,0.100,5395.000,0.200,480.000,0.300,51.000,0.500,2.000,1.000,0,5.000,0
"03/09/08","10:03:33",6115.000,"cc",28310.857,6.00,6,0.100,5593.000,0.200,475.000,0.300,41.000,0.500,6.000,1.000,0,5.000,0
"03/09/08","10:03:39",5934.000,"cc",28347.623,6.00,6,0.100,5465.000,0.200,426.000,0.300,40.000,0.500,3.000,1.000,0,5.000,0
"03/09/08","10:03:45",5717.000,"cc",28296.168,6.00,6,0.100,5319.000,0.200,365.000,0.300,30.000,0.500,3.000,1.000,0,5.000,0
"03/09/08","10:03:51",5898.000,"cc",28431.598,6.00,6,0.100,5411.000,0.200,442.000,0.300,42.000,0.500,3.000,1.000,0,5.000,0
"03/09/08","10:03:57",5598.000,"cc",28266.316,6.00,6,0.100,5189.000,0.200,373.000,0.300,34.000,0.500,2.000,1.000,0,5.000,0
"03/09/08","10:04:03",5892.000,"cc",28310.320,6.00,6,0.100,5415.000,0.200,436.000,0.300,37.000,0.500,4.000,1.000,0,5.000,0
"03/09/08","10:04:09",5748.000,"cc",28351.752,6.00,6,0.100,5317.000,0.200,395.000,0.300,33.000,0.500,3.000,1.000,0,5.000,0
"03/09/08","10:04:15",5746.000,"cc",28258.959,6.00,6,0.100,5300.000,0.200,398.000,0.300,40.000,0.500,8.000,1.000,0,5.000,0
"03/09/08","10:04:21",5730.000,"cc",28394.918,6.00,6,0.100,5267.000,0.200,423.000,0.300,39.000,0.500,1.000,1.000,0,5.000,0
"03/09/08","10:04:27",5811.000,"cc",28265.381,6.00,6,0.100,5383.000,0.200,382.000,0.300,43.000,0.500,3.000,1.000,0,5.000,0
"03/09/08","10:04:33",5667.000,"cc",28393.594,6.00,6,0.100,5269.000,0.200,358.000,0.300,39.000,0.500,1.000,1.000,0,5.000,0
"03/09/08","10:04:39",5772.000,"cc",28338.637,6.00,6,0.100,5366.000,0.200,367.000,0.300,35.000,0.500,3.000,1.000,1.000,5.000,0
"03/09/08","10:04:45",5834.000,"cc",28285.313,6.00,6,0.100,5394.000,0.200,412.000,0.300,26.000,0.500,2.000,1.000,0,5.000,0
"03/09/08","10:04:51",5919.000,"cc",28275.916,6.00,6,0.100,5430.000,0.200,447.000,0.300,39.000,0.500,3.000,1.000,0,5.000,0
"03/09/08","10:04:57",5815.000,"cc",28319.109,6.00,6,0.100,5426.000,0.200,355.000,0.300,32.000,0.500,2.000,1.000,0,5.000,0
"03/09/08","10:05:03",5881.000,"cc",28272.481,6.00,6,0.100,5492.000,0.200,353.000,0.300,35.000,0.500,1.000,1.000,0,5.000,0
"03/09/08","10:05:09",5777.000,"cc",28332.606,6.00,6,0.100,5325.000,0.200,413.000,0.300,34.000,0.500,5.000,1.000,0,5.000,0
"03/09/08","10:05:15",5982.000,"cc",28289.527,6.00,6,0.100,5554.000,0.200,378.000,0.300,45.000,0.500,5.000,1.000,0,5.000,0
"03/09/08","10:05:21",6102.000,"cc",28309.654,6.00,6,0.100,5668.000,0.200,396.000,0.300,36.000,0.500,2.000,1.000,0,5.000,0
"03/09/08","10:05:27",5920.000,"cc",28313.123,6.00,6,0.100,5496.000,0.200,395.000,0.300,25.000,0.500,4.000,1.000,0,5.000,0
"03/09/08","10:05:33",6024.000,"cc",28316.256,6.00,6,0.100,5583.000,0.200,399.000,0.300,40.000,0.500,2.000,1.000,0,5.000,0
"03/09/08","10:05:39",6055.000,"cc",28334.809,6.00,6,0.100,5621.000,0.200,394.000,0.300,40.000,0.500,0,1.000,0,5.000,0
"03/09/08","10:05:45",5769.000,"cc",28240.834,6.00,6,0.100,5394.000,0.200,342.000,0.300,30.000,0.500,2.000,1.000,1.000,5.000,0
"03/09/08","10:05:51",6097.000,"cc",28316.225,6.00,6,0.100,5671.000,0.200,388.000,0.300,34.000,0.500,4.000,1.000,0,5.000,0
"03/09/08","10:05:57",6088.000,"cc",28406.063,6.00,6,0.100,5690.000,0.200,369.000,0.300,26.000,0.500,3.000,1.000,0,5.000,0
"03/09/08","10:06:03",5876.000,"cc",28271.121,6.00,6,0.100,5488.000,0.200,352.000,0.300,33.000,0.500,3.000,1.000,0,5.000,0
"03/09/08","10:06:09",6073.000,"cc",28411.111,6.00,6,0.100,5655.000,0.200,387.000,0.300,28.000,0.500,3.000,1.000,0,5.000,0
"03/09/08","10:06:15",5999.000,"cc",28288.416,6.00,6,0.100,5607.000,0.200,363.000,0.300,29.000,0.500,0,1.000,0,5.000,0
"03/09/08","10:06:21",6288.000,"cc",28311.900,6.00,6,0.100,5803.000,0.200,433.000,0.300,45.000,0.500,7.000,1.000,0,5.000,0
"03/09/08","10:06:27",6172.000,"cc",28368.199,6.00,6,0.100,5748.000,0.200,387.000,0.300,34.000,0.500,3.000,1.000,0,5.000,0
"03/09/08","10:06:33",6508.000,"cc",28342.867,6.00,6,0.100,6005.000,0.200,467.000,0.300,32.000,0.500,4.000,1.000,0,5.000,0
"03/09/08","10:06:39",6414.000,"cc",28279.375,6.00,6,0.100,5940.000,0.200,434.000,0.300,39.000,0.500,1.000,1.000,0,5.000,0
"03/09/08","10:06:45",6491.000,"cc",28268.356,6.00,6,0.100,6042.000,0.200,411.000,0.300,36.000,0.500,2.000,1.000,0,5.000,0
"03/09/08","10:06:51",6289.000,"cc",28236.758,6.00,6,0.100,5873.000,0.200,387.000,0.300,27.000,0.500,2.000,1.000,0,5.000,0
"03/09/08","10:06:57",6483.000,"cc",28325.512,6.00,6,0.100,6024.000,0.200,406.000,0.300,45.000,0.500,8.000,1.000,0,5.000,0
"03/09/08","10:07:03",6298.000,"cc",28362.750,6.00,6,0.100,5862.000,0.200,405.000,0.300,29.000,0.500,2.000,1.000,0,5.000,0
"03/09/08","10:07:09",6113.000,"cc",28320.785,6.00,6,0.100,5717.000,0.200,384.000,0.300,11.000,0.500,1.000,1.000,0,5.000,0
"03/09/08","10:07:15",6011.000,"cc",28315.865,6.00,6,0.100,5603.000,0.200,374.000,0.300,31.000,0.500,3.000,1.000,0,5.000,0
"03/09/08","10:07:21",6532.000,"cc",28300.195,6.00,6,0.100,6074.000,0.200,428.000,0.300,25.000,0.500,5.000,1.000,0,5.000,0
"03/09/08","10:07:27",6384.000,"cc",28313.574,6.00,6,0.100,6010.000,0.200,345.000,0.300,29.000,0.500,0,1.000,0,5.000,0
"03/09/08","10:07:33",6564.000,"cc",28271.492,6.00,6,0.100,6166.000,0.200,372.000,0.300,26.000,0.500,0,1.000,0,5.000,0
"03/09/08","10:07:39",6609.000,"cc",28297.016,6.00,6,0.100,6185.000,0.200,394.000,0.300,28.000,0.500,2.000,1.000,0,5.000,0
"03/09/08","10:07:45",6640.000,"cc",28410.824,6.00,6,0.100,6233.000,0.200,374.000,0.300,31.000,0.500,2.000,1.000,0,5.000,0
"03/09/08","10:07:51",6767.000,"cc",28262.510,6.00,6,0.100,6303.000,0.200,427.000,0.300,34.000,0.500,3.000,1.000,0,5.000,0
"03/09/08","10:07:57",6685.000,"cc",28369.898,6.00,6,0.100,6248.000,0.200,385.000,0.300,49.000,0.500,3.000,1.000,0,5.000,0
"03/09/08","10:08:03",6872.000,"cc",28268.414,6.00,6,0.100,6434.000,0.200,402.000,0.300,32.000,0.500,3.000,1.000,1.000,5.000,0
"03/09/08","10:08:09",6804.000,"cc",28372.732,6.00,6,0.100,6361.000,0.200,409.000,0.300,30.000,0.500,4.000,1.000,0,5.000,0
"03/09/08","10:08:15",6740.000,"cc",28359.854,6.00,6,0.100,6338.000,0.200,374.000,0.300,26.000,0.500,2.000,1.000,0,5.000,0
"03/09/08","10:08:21",6884.000,"cc",28231.084,6.00,6,0.100,6413.000,0.200,419.000,0.300,46.000,0.500,6.000,1.000,0,5.000,0
"03/09/08","10:08:27",6997.000,"cc",28327.037,6.00,6,0.100,6587.000,0.200,381.000,0.300,28.000,0.500,1.000,1.000,0,5.000,0
"03/09/08","10:08:33",7005.000,"cc",28296.598,6.00,6,0.100,6508.000,0.200,450.000,0.300,41.000,0.500,6.000,1.000,0,5.000,0
"03/09/08","10:08:39",7179.000,"cc",28348.514,6.00,6,0.100,6692.000,0.200,450.000,0.300,33.000,0.500,4.000,1.000,0,5.000,0
"03/09/08","10:08:45",7248.000,"cc",28311.768,6.00,6,0.100,6783.000,0.200,421.000,0.300,37.000,0.500,6.000,1.000,1.000,5.000,0
"03/09/08","10:08:51",7158.000,"cc",28280.684,6.00,6,0.100,6699.000,0.200,425.000,0.300,32.000,0.500,2.000,1.000,0,5.000,0
"03/09/08","10:08:57",7084.000,"cc",28335.440,6.00,6,0.100,6639.000,0.200,405.000,0.300,37.000,0.500,3.000,1.000,0,5.000,0
"03/09/08","10:09:03",7329.000,"cc",28265.016,6.00,6,0.100,6835.000,0.200,449.000,0.300,41.000,0.500,4.000,1.000,0,5.000,0
"03/09/08","10:09:09",7167.000,"cc",28367.340,6.00,6,0.100,6715.000,0.200,405.000,0.300,42.000,0.500,5.000,1.000,0,5.000,0
"03/09/08","10:09:15",7365.000,"cc",28308.125,6.00,6,0.100,6879.000,0.200,454.000,0.300,31.000,0.500,1.000,1.000,0,5.000,0
"03/09/08","10:09:21",7416.000,"cc",28245.195,6.00,6,0.100,6914.000,0.200,466.000,0.300,31.000,0.500,5.000,1.000,0,5.000,0
"03/09/08","10:09:27",7600.000,"cc",28370.221,6.00,6,0.100,7130.000,0.200,437.000,0.300,30.000,0.500,3.000,1.000,0,5.000,0
"03/09/08","10:09:33",7444.000,"cc",28244.510,6.00,6,0.100,6909.000,0.200,484.000,0.300,48.000,0.500,3.000,1.000,0,5.000,0
"03/09/08","10:09:39",7325.000,"cc",28290.502,6.00,6,0.100,6859.000,0.200,430.000,0.300,34.000,0.500,2.000,1.000,0,5.000,0
"03/09/08","10:09:45",7507.000,"cc",28372.106,6.00,6,0.100,7015.000,0.200,459.000,0.300,31.000,0.500,2.000,1.000,0,5.000,0
"03/09/08","10:09:51",7531.000,"cc",28363.660,6.00,6,0.100,6990.000,0.200,492.000,0.300,47.000,0.500,2.000,1.000,0,5.000,0
"03/09/08","10:09:57",7633.000,"cc",28275.047,6.00,6,0.100,7143.000,0.200,447.000,0.300,40.000,0.500,3.000,1.000,0,5.000,0
"03/09/08","10:10:03",7656.000,"cc",28325.967,6.00,6,0.100,7145.000,0.200,473.000,0.300,38.000,0.500,0,1.000,0,5.000,0
"03/09/08","10:10:09",7712.000,"cc",28285.914,6.00,6,0.100,7186.000,0.200,495.000,0.300,28.000,0.500,3.000,1.000,0,5.000,0
"03/09/08","10:10:15",7730.000,"cc",28291.025,6.00,6,0.100,7236.000,0.200,457.000,0.300,35.000,0.500,2.000,1.000,0,5.000,0
"03/09/08","10:10:21",7723.000,"cc",28363.180,6.00,6,0.100,7204.000,0.200,488.000,0.300,28.000,0.500,2.000,1.000,1.000,5.000,0
"03/09/08","10:10:27",7827.000,"cc",28303.975,6.00,6,0.100,7293.000,0.200,490.000,0.300,42.000,0.500,2.000,1.000,0,5.000,0
"03/09/08","10:10:33",7524.000,"cc",28330.699,6.00,6,0.100,7048.000,0.200,445.000,0.300,29.000,0.500,2.000,1.000,0,5.000,0
"03/09/08","10:10:39",8062.000,"cc",28326.297,6.00,6,0.100,7557.000,0.200,463.000,0.300,40.000,0.500,2.000,1.000,0,5.000,0
"03/09/08","10:10:45",8161.000,"cc",28253.207,6.00,6,0.100,7639.000,0.200,488.000,0.300,31.000,0.500,3.000,1.000,0,5.000,0
"03/09/08","10:10:51",7910.000,"cc",28351.107,6.00,6,0.100,7418.000,0.200,448.000,0.300,39.000,0.500,5.000,1.000,0,5.000,0
"03/09/08","10:10:57",8035.000,"cc",28262.768,6.00,6,0.100,7506.000,0.200,487.000,0.300,39.000,0.500,3.000,1.000,0,5.000,0
"03/09/08","10:11:03",8195.000,"cc",28290.166,6.00,6,0.100,7671.000,0.200,483.000,0.300,38.000,0.500,3.000,1.000,0,5.000,0
"03/09/08","10:11:09",8158.000,"cc",28318.775,6.00,6,0.100,7633.000,0.200,489.000,0.300,33.000,0.500,3.000,1.000,0,5.000,0
"03/09/08","10:11:15",8311.000,"cc",28384.391,6.00,6,0.100,7777.000,0.200,500.000,0.300,30.000,0.500,3.000,1.000,1.000,5.000,0
"03/09/08","10:11:21",7930.000,"cc",28399.766,6.00,6,0.100,7464.000,0.200,438.000,0.300,24.000,0.500,4.000,1.000,0,5.000,0
"03/09/08","10:11:27",7992.000,"cc",28241.143,6.00,6,0.100,7513.000,0.200,444.000,0.300,33.000,0.500,1.000,1.000,1.000,5.000,0
"03/09/08","10:11:33",8169.000,"cc",28284.359,6.00,6,0.100,7621.000,0.200,510.000,0.300,35.000,0.500,3.000,1.000,0,5.000,0
"03/09/08","10:11:39",8347.000,"cc",28305.928,6.00,6,0.100,7841.000,0.200,478.000,0.300,27.000,0.500,1.000,1.000,0,5.000,0
"03/09/08","10:11:45",8355.000,"cc",28303.190,6.00,6,0.100,7842.000,0.200,473.000,0.300,37.000,0.500,3.000,1.000,0,5.000,0
"03/09/08","10:11:51",8452.000,"cc",28402.203,6.00,6,0.100,7947.000,0.200,462.000,0.300,40.000,0.500,3.000,1.000,0,5.000,0
"03/09/08","10:11:57",8297.000,"cc",28253.756,6.00,6,0.100,7788.000,0.200,459.000,0.300,46.000,0.500,3.000,1.000,1.000,5.000,0
"03/09/08","10:12:03",8367.000,"cc",28396.395,6.00,6,0.100,7837.000,0.200,493.000,0.300,32.000,0.500,5.000,1.000,0,5.000,0
"03/09/08","10:12:09",8451.000,"cc",28314.117,6.00,6,0.100,7879.000,0.200,544.000,0.300,24.000,0.500,4.000,1.000,0,5.000,0
"03/09/08","10:12:15",8272.000,"cc",28275.971,6.00,6,0.100,7784.000,0.200,453.000,0.300,35.000,0.500,0,1.000,0,5.000,0
"03/09/08","10:12:21",8328.000,"cc",28347.279,6.00,6,0.100,7838.000,0.200,464.000,0.300,20.000,0.500,6.000,1.000,0,5.000,0
"03/09/08","10:12:27",8417.000,"cc",28308.168,6.00,6,0.100,7971.000,0.200,417.000,0.300,27.000,0.500,2.000,1.000,0,5.000,0
"03/09/08","10:12:33",8237.000,"cc",28280.596,6.00,6,0.100,7704.000,0.200,500.000,0.300,32.000,0.500,1.000,1.000,0,5.000,0
"03/09/08","10:12:39",8649.000,"cc",28302.207,6.00,6,0.100,8109.000,0.200,504.000,0.300,29.000,0.500,7.000,1.000,0,5.000,0
"03/09/08","10:12:45",8786.000,"cc",28264.023,6.00,6,0.100,8214.000,0.200,527.000,0.300,43.000,0.500,2.000,1.000,0,5.000,0
"03/09/08","10:12:51",8792.000,"cc",28369.809,6.00,6,0.100,8283.000,0.200,467.000,0.300,39.000,0.500,3.000,1.000,0,5.000,0
"03/09/08","10:12:57",8604.000,"cc",28355.186,6.00,6,0.100,8065.000,0.200,503.000,0.300,33.000,0.500,3.000,1.000,0,5.000,0
"03/09/08","10:13:03",8654.000,"cc",28352.022,6.00,6,0.100,8133.000,0.200,492.000,0.300,28.000,0.500,1.000,1.000,0,5.000,0
"03/09/08","10:13:09",8901.000,"cc",28365.418,6.00,6,0.100,8351.000,0.200,525.000,0.300,24.000,0.500,1.000,1.000,0,5.000,0
"03/09/08","10:13:15",9054.000,"cc",28229.176,6.00,6,0.100,8490.000,0.200,524.000,0.300,38.000,0.500,2.000,1.000,0,5.000,0
"03/09/08","10:13:21",8967.000,"cc",28223.363,6.00,6,0.100,8423.000,0.200,516.000,0.300,26.000,0.500,2.000,1.000,0,5.000,0
"03/09/08","10:13:27",8728.000,"cc",28339.988,6.00,6,0.100,8177.000,0.200,518.000,0.300,28.000,0.500,5.000,1.000,0,5.000,0
"03/09/08","10:13:33",8864.000,"cc",28313.393,6.00,6,0.100,8281.000,0.200,548.000,0.300,28.000,0.500,7.000,1.000,0,5.000,0
"03/09/08","10:13:39",9035.000,"cc",28397.178,6.00,6,0.100,8508.000,0.200,491.000,0.300,34.000,0.500,2.000,1.000,0,5.000,0
"03/09/08","10:13:45",9084.000,"cc",28300.361,6.00,6,0.100,8524.000,0.200,523.000,0.300,37.000,0.500,0,1.000,0,5.000,0
"03/09/08","10:13:51",9123.000,"cc",28286.025,6.00,6,0.100,8589.000,0.200,492.000,0.300,36.000,0.500,4.000,1.000,2.000,5.000,0
"03/09/08","10:13:57",9077.000,"cc",28299.840,6.00,6,0.100,8562.000,0.200,488.000,0.300,26.000,0.500,1.000,1.000,0,5.000,0
"03/09/08","10:14:03",9293.000,"cc",28308.096,6.00,6,0.100,8734.000,0.200,521.000,0.300,37.000,0.500,1.000,1.000,0,5.000,0
"03/09/08","10:14:09",9480.000,"cc",28376.893,6.00,6,0.100,8875.000,0.200,561.000,0.300,44.000,0.500,0,1.000,0,5.000,0
"03/09/08","10:14:15",9254.000,"cc",28340.434,6.00,6,0.100,8663.000,0.200,551.000,0.300,40.000,0.500,0,1.000,0,5.000,0
"03/09/08","10:14:21",9367.000,"cc",28339.566,6.00,6,0.100,8758.000,0.200,565.000,0.300,41.000,0.500,2.000,1.000,1.000,5.000,0
"03/09/08","10:14:27",9320.000,"cc",28333.506,6.00,6,0.100,8727.000,0.200,551.000,0.300,40.000,0.500,2.000,1.000,0,5.000,0
"03/09/08","10:14:33",9586.000,"cc",28236.969,6.00,6,0.100,8970.000,0.200,579.000,0.300,35.000,0.500,2.000,1.000,0,5.000,0
"03/09/08","10:14:39",9501.000,"cc",28308.033,6.00,6,0.100,8961.000,0.200,501.000,0.300,39.000,0.500,0,1.000,0,5.000,0
"03/09/08","10:14:45",9692.000,"cc",28281.746,6.00,6,0.100,9068.000,0.200,584.000,0.300,34.000,0.500,6.000,1.000,0,5.000,0
"03/09/08","10:14:51",9551.000,"cc",28341.197,6.00,6,0.100,8933.000,0.200,585.000,0.300,32.000,0.500,1.000,1.000,0,5.000,0
"03/09/08","10:14:57",9517.000,"cc",28391.986,6.00,6,0.100,8917.000,0.200,569.000,0.300,28.000,0.500,3.000,1.000,0,5.000,0
"03/09/08","10:15:03",9694.000,"cc",28291.992,6.00,6,0.100,9107.000,0.200,550.000,0.300,34.000,0.500,3.000,1.000,0,5.000,0
"03/09/08","10:15:09",9524.000,"cc",28235.885,6.00,6,0.100,8929.000,0.200,565.000,0.300,30.000,0.500,0,1.000,0,5.000,0
"03/09/08","10:15:15",9797.000,"cc",28397.106,6.00,6,0.100,9172.000,0.200,585.000,0.300,39.000,0.500,1.000,1.000,0,5.000,0
"03/09/08","10:15:21",9883.000,"cc",28325.221,6.00,6,0.100,9316.000,0.200,535.000,0.300,31.000,0.500,1.000,1.000,0,5.000,0
"03/09/08","10:15:27",9694.000,"cc",28282.328,6.00,6,0.100,9076.000,0.200,581.000,0.300,34.000,0.500,3.000,1.000,0,5.000,0
"03/09/08","10:15:33",9689.000,"cc",28289.049,6.00,6,0.100,9137.000,0.200,520.000,0.300,30.000,0.500,1.000,1.000,1.000,5.000,0
"03/09/08","10:15:39",9875.000,"cc",28277.623,6.00,6,0.100,9310.000,0.200,531.000,0.300,32.000,0.500,2.000,1.000,0,5.000,0
"03/09/08","10:15:45",10020.000,"cc",28277.789,6.00,6,0.100,9372.000,0.200,601.000,0.300,43.000,0.500,4.000,1.000,0,5.000,0
"03/09/08","10:15:51",9808.000,"cc",28338.670,6.00,6,0.100,9239.000,0.200,536.000,0.300,31.000,0.500,2.000,1.000,0,5.000,0
"03/09/08","10:15:57",9891.000,"cc",28327.840,6.00,6,0.100,9292.000,0.200,565.000,0.300,32.000,0.500,2.000,1.000,0,5.000,0
"03/09/08","10:16:03",9874.000,"cc",28263.434,6.00,6,0.100,9309.000,0.200,530.000,0.300,34.000,0.500,1.000,1.000,0,5.000,0
"03/09/08","10:16:09",10231.000,"cc",28361.977,6.00,6,0.100,9563.000,0.200,613.000,0.300,49.000,0.500,6.000,1.000,0,5.000,0
"03/09/08","10:16:15",9831.000,"cc",28317.273,6.00,6,0.100,9278.000,0.200,511.000,0.300,41.000,0.500,1.000,1.000,0,5.000,0
"03/09/08","10:16:21",10091.000,"cc",28372.643,6.00,6,0.100,9486.000,0.200,582.000,0.300,21.000,0.500,2.000,1.000,0,5.000,0
"03/09/08","10:16:27",10352.000,"cc",28356.674,6.00,6,0.100,9737.000,0.200,587.000,0.300,25.000,0.500,3.000,1.000,0,5.000,0
"03/09/08","10:16:33",10245.000,"cc",28252.451,6.00,6,0.100,9651.000,0.200,565.000,0.300,26.000,0.500,3.000,1.000,0,5.000,0
"03/09/08","10:16:39",10215.000,"cc",28205.688,6.00,6,0.100,9578.000,0.200,600.000,0.300,33.000,0.500,3.000,1.000,1.000,5.000,0
"03/09/08","10:16:45",10321.000,"cc",28365.020,6.00,6,0.100,9648.000,0.200,624.000,0.300,48.000,0.500,1.000,1.000,0,5.000,0
"03/09/08","10:16:51",10546.000,"cc",28285.984,6.00,6,0.100,9882.000,0.200,598.000,0.300,60.000,0.500,5.000,1.000,1.000,5.000,0
"03/09/08","10:16:57",10718.000,"cc",28399.059,6.00,6,0.100,9968.000,0.200,689.000,0.300,57.000,0.500,4.000,1.000,0,5.000,0
"03/09/08","10:17:03",10309.000,"cc",28189.623,6.00,6,0.100,9696.000,0.200,578.000,0.300,34.000,0.500,1.000,1.000,0,5.000,0
"03/09/08","10:17:09",10779.000,"cc",28361.238,6.00,6,0.100,10027.000,0.200,703.000,0.300,47.000,0.500,2.000,1.000,0,5.000,0
"03/09/08","10:17:15",10442.000,"cc",28363.744,6.00,6,0.100,9808.000,0.200,601.000,0.300,32.000,0.500,1.000,1.000,0,5.000,0
"03/09/08","10:17:21",10432.000,"cc",28315.074,6.00,6,0.100,9780.000,0.200,601.000,0.300,50.000,0.500,1.000,1.000,0,5.000,0
"03/09/08","10:17:27",10347.000,"cc",28289.561,6.00,6,0.100,9704.000,0.200,599.000,0.300,42.000,0.500,2.000,1.000,0,5.000,0
"03/09/08","10:17:33",10817.000,"cc",28279.217,6.00,6,0.100,10143.000,0.200,639.000,0.300,31.000,0.500,4.000,1.000,0,5.000,0
"03/09/08","10:17:39",10991.000,"cc",28310.033,6.00,6,0.100,10261.000,0.200,691.000,0.300,37.000,0.500,2.000,1.000,0,5.000,0
"03/09/08","10:17:45",10425.000,"cc",28284.920,6.00,6,0.100,9811.000,0.200,579.000,0.300,33.000,0.500,2.000,1.000,0,5.000,0
"03/09/08","10:17:51",10656.000,"cc",28320.643,6.00,6,0.100,10007.000,0.200,619.000,0.300,29.000,0.500,1.000,1.000,0,5.000,0
"03/09/08","10:17:57",10468.000,"cc",28387.852,6.00,6,0.100,9837.000,0.200,600.000,0.300,31.000,0.500,0,1.000,0,5.000,0
"03/09/08","10:18:03",10633.000,"cc",28353.408,6.00,6,0.100,10025.000,0.200,582.000,0.300,23.000,0.500,3.000,1.000,0,5.000,0
"03/09/08","10:18:09",10873.000,"cc",28297.041,6.00,6,0.100,10199.000,0.200,633.000,0.300,35.000,0.500,5.000,1.000,1.000,5.000,0